Orbital Elements at Epoch 2459200.5 (2020-Dec-17.0) TDB
Reference: JPL 8 (heliocentric ecliptic J2000)
Element | Value | Uncertainty (1-sigma) | Units |
e | .1741775006213359 | 5.171e-08 | |
a | 2.390489661350401 | 1.3718e-08 | au |
q | 1.974120146875245 | 1.2382e-07 | au |
i | 2.653900132702582 | 7.2976e-06 | deg |
node | 23.22921956960662 | 0.00014071 | deg |
peri | 80.96736672583229 | 0.00014247 | deg |
M | 217.0447971611067 | 2.4252e-05 | deg |
tp | 2459736.575793141161 (2022-Jun-06.07579314) | 9.3215e-05 | TDB |
period | 1349.984342635712 3.70 | 1.1621e-05 3.182e-08 | d yr |
n | .2666697595152366 | 2.2955e-09 | deg/d |
Q | 2.806859175825558 | 1.6108e-08 | au |
|
| | Orbit Determination Parameters
Additional Information
|